• en France
  • Liste des pays
  • À 7 jours
  • Température de l'eau
  • Carte satellitaire
  • Carte météo
  • Widgets météo
  • user-avatar
    Se connecter

    Météo par heure à Ibagué

    Ce jour, 21 Mai, Lundi

    Heure Température Précipitation Vent Pression Humidité
    00:00 +19°C° 0 mm 1 m/s 649 mmHg 73%
    01:00 +19°C° 0 mm 1 m/s 649 mmHg 72%
    02:00 +19°C° 0 mm 1 m/s 648 mmHg 72%
    03:00 +19°C° 0 mm 1 m/s 648 mmHg 72%
    04:00 +18°C° 0 mm 1 m/s 648 mmHg 71%
    05:00 +19°C° 0 mm 1 m/s 648 mmHg 69%
    06:00 +20°C° 0 mm 1 m/s 649 mmHg 67%
    07:00 +19°C° 0 mm 0 m/s 649 mmHg 65%
    08:00 +23°C° 0 mm 1 m/s 650 mmHg 59%
    09:00 +25°C° 0 mm 1 m/s 650 mmHg 53%
    10:00 +27°C° 0 mm 2 m/s 651 mmHg 47%
    11:00 +27°C° 0 mm 2 m/s 651 mmHg 45%
    12:00 +28°C° 0 mm 2 m/s 650 mmHg 44%
    13:00 +29°C° 0 mm 2 m/s 650 mmHg 42%
    14:00 +29°C° 0 mm 2 m/s 649 mmHg 44%
    15:00 +29°C° 0 mm 2 m/s 649 mmHg 45%
    16:00 +28°C° 0 mm 2 m/s 648 mmHg 47%
    17:00 +26°C° 0 mm 1 m/s 648 mmHg 55%
    18:00 +24°C° 0 mm 1 m/s 648 mmHg 62%
    19:00 +22°C° 0 mm 1 m/s 648 mmHg 70%
    20:00 +21°C° 0,2 mm 1 m/s 648 mmHg 70%
    21:00 +21°C° 0,2 mm 1 m/s 649 mmHg 71%
    22:00 +21°C° 0,2 mm 1 m/s 649 mmHg 71%
    23:00 +20°C° 0,2 mm 1 m/s 649 mmHg 72%

    Demain, 22 Mai, Mardi

    Heure Température Précipitation Vent Pression Humidité
    00:00 +20°C° 0,2 mm 1 m/s 649 mmHg 72%
    01:00 +20°C° 0,2 mm 1 m/s 649 mmHg 73%
    02:00 +19°C° 0 mm 1 m/s 648 mmHg 73%
    03:00 +19°C° 0 mm 1 m/s 648 mmHg 74%
    04:00 +19°C° 0 mm 1 m/s 648 mmHg 74%
    05:00 +20°C° 0 mm 1 m/s 648 mmHg 72%
    06:00 +20°C° 0 mm 1 m/s 649 mmHg 70%
    07:00 +19°C° 0 mm 0 m/s 649 mmHg 68%
    08:00 +22°C° 0 mm 1 m/s 650 mmHg 63%
    09:00 +24°C° 0 mm 1 m/s 650 mmHg 58%
    10:00 +26°C° 0 mm 2 m/s 651 mmHg 53%
    11:00 +27°C° 0 mm 2 m/s 651 mmHg 50%
    12:00 +28°C° 0 mm 2 m/s 650 mmHg 47%
    13:00 +29°C° 0 mm 2 m/s 650 mmHg 45%
    14:00 +29°C° 0 mm 2 m/s 649 mmHg 46%
    15:00 +28°C° 0 mm 2 m/s 648 mmHg 47%
    16:00 +28°C° 0 mm 2 m/s 648 mmHg 48%
    17:00 +26°C° 0 mm 1 m/s 648 mmHg 55%
    18:00 +24°C° 0 mm 1 m/s 648 mmHg 62%
    19:00 +22°C° 0 mm 1 m/s 648 mmHg 68%
    20:00 +22°C° 0,3 mm 1 m/s 648 mmHg 69%
    21:00 +21°C° 0,3 mm 1 m/s 649 mmHg 70%
    22:00 +21°C° 0,3 mm 1 m/s 650 mmHg 71%
    23:00 +20°C° 0,3 mm 1 m/s 649 mmHg 72%

    Après-demain, 23 Mai, Mercredi

    Heure Température Précipitation Vent Pression Humidité
    00:00 +20°C° 0,3 mm 1 m/s 649 mmHg 73%
    01:00 +20°C° 0,3 mm 1 m/s 649 mmHg 74%
    02:00 +19°C° 0,2 mm 1 m/s 649 mmHg 74%
    03:00 +19°C° 0,2 mm 1 m/s 648 mmHg 75%
    04:00 +19°C° 0,2 mm 1 m/s 648 mmHg 75%
    05:00 +19°C° 0,1 mm 1 m/s 649 mmHg 75%
    06:00 +20°C° 0,1 mm 1 m/s 649 mmHg 75%
    07:00 +20°C° 0,1 mm 1 m/s 649 mmHg 75%
    08:00 +21°C° 0,3 mm 1 m/s 650 mmHg 73%
    09:00 +22°C° 0,3 mm 1 m/s 650 mmHg 71%
    10:00 +23°C° 0,3 mm 2 m/s 651 mmHg 69%
    11:00 +24°C° 0,3 mm 2 m/s 651 mmHg 67%
    12:00 +25°C° 0,3 mm 2 m/s 650 mmHg 64%
    13:00 +26°C° 0,3 mm 2 m/s 650 mmHg 61%
    14:00 +26°C° 0,1 mm 2 m/s 650 mmHg 59%
    15:00 +26°C° 0,1 mm 2 m/s 649 mmHg 56%
    16:00 +26°C° 0,1 mm 2 m/s 649 mmHg 54%
    17:00 +25°C° 0 mm 1 m/s 649 mmHg 59%
    18:00 +23°C° 0 mm 1 m/s 649 mmHg 65%
    19:00 +21°C° 0 mm 1 m/s 649 mmHg 71%
    20:00 +21°C° 0,1 mm 1 m/s 649 mmHg 71%
    21:00 +21°C° 0,1 mm 1 m/s 650 mmHg 71%
    22:00 +21°C° 0,1 mm 1 m/s 650 mmHg 71%
    23:00 +20°C° 0 mm 1 m/s 650 mmHg 71%

    24 Mai, Jeudi

    Heure Température Précipitation Vent Pression Humidité
    00:00 +20°C° 0 mm 1 m/s 650 mmHg 71%
    01:00 +20°C° 0 mm 1 m/s 649 mmHg 71%
    02:00 +19°C° 0 mm 1 m/s 649 mmHg 73%
    03:00 +17°C° 0 mm 0 m/s 649 mmHg 74%
    04:00 +17°C° 0 mm 0 m/s 649 mmHg 75%
    05:00 +19°C° 0,3 mm 1 m/s 649 mmHg 77%
    06:00 +19°C° 0,3 mm 1 m/s 650 mmHg 78%
    07:00 +19°C° 0,3 mm 1 m/s 650 mmHg 79%
    08:00 +20°C° 0,3 mm 1 m/s 651 mmHg 77%
    09:00 +21°C° 0,3 mm 1 m/s 651 mmHg 75%
    10:00 +22°C° 0,3 mm 1 m/s 651 mmHg 73%
    11:00 +23°C° 0,2 mm 1 m/s 651 mmHg 70%
    12:00 +23°C° 0,2 mm 1 m/s 651 mmHg 67%
    13:00 +24°C° 0,2 mm 1 m/s 650 mmHg 64%
    14:00 +24°C° 0,2 mm 1 m/s 650 mmHg 65%
    15:00 +24°C° 0,2 mm 1 m/s 649 mmHg 65%
    16:00 +24°C° 0,2 mm 1 m/s 649 mmHg 66%
    17:00 +23°C° 0 mm 1 m/s 649 mmHg 70%
    18:00 +21°C° 0 mm 1 m/s 649 mmHg 74%
    19:00 +20°C° 0 mm 1 m/s 649 mmHg 78%
    20:00 +20°C° 0 mm 1 m/s 650 mmHg 77%
    21:00 +20°C° 0 mm 1 m/s 650 mmHg 76%
    22:00 +20°C° 0 mm 1 m/s 650 mmHg 75%
    23:00 +20°C° 0 mm 1 m/s 650 mmHg 74%

    25 Mai, Vendredi

    Heure Température Précipitation Vent Pression Humidité
    00:00 +20°C° 0 mm 1 m/s 650 mmHg 73%
    01:00 +20°C° 0 mm 1 m/s 649 mmHg 73%
    02:00 +19°C° 0 mm 1 m/s 649 mmHg 73%
    03:00 +19°C° 0 mm 1 m/s 649 mmHg 73%
    04:00 +19°C° 0 mm 1 m/s 649 mmHg 73%
    05:00 +20°C° 0 mm 1 m/s 649 mmHg 71%
    06:00 +18°C° 0 mm 0 m/s 650 mmHg 69%
    07:00 +19°C° 0 mm 0 m/s 650 mmHg 68%
    08:00 +22°C° 0 mm 1 m/s 651 mmHg 63%
    09:00 +24°C° 0 mm 1 m/s 651 mmHg 58%
    10:00 +25°C° 0 mm 2 m/s 652 mmHg 53%
    11:00 +26°C° 0 mm 2 m/s 651 mmHg 52%
    12:00 +26°C° 0 mm 2 m/s 650 mmHg 51%
    13:00 +27°C° 0 mm 2 m/s 650 mmHg 50%
    14:00 +26°C° 0 mm 2 m/s 649 mmHg 53%
    15:00 +25°C° 0 mm 2 m/s 649 mmHg 55%
    16:00 +25°C° 0 mm 2 m/s 648 mmHg 57%
    17:00 +23°C° 0 mm 1 m/s 648 mmHg 63%
    18:00 +22°C° 0 mm 1 m/s 648 mmHg 69%
    19:00 +20°C° 0 mm 1 m/s 649 mmHg 74%
    20:00 +20°C° 0 mm 1 m/s 649 mmHg 73%
    21:00 +20°C° 0 mm 1 m/s 649 mmHg 72%
    22:00 +20°C° 0 mm 1 m/s 650 mmHg 71%
    23:00 +20°C° 0 mm 1 m/s 649 mmHg 71%

    26 Mai, Samedi

    Heure Température Précipitation Vent Pression Humidité
    00:00 +19°C° 0 mm 1 m/s 649 mmHg 71%
    01:00 +17°C° 0 mm 0 m/s 648 mmHg 71%
    02:00 +17°C° 0 mm 0 m/s 648 mmHg 71%
    03:00 +17°C° 0 mm 0 m/s 648 mmHg 71%
    04:00 +19°C° 0 mm 1 m/s 648 mmHg 71%
    05:00 +17°C° 0,1 mm 0 m/s 649 mmHg 72%
    06:00 +17°C° 0,1 mm 0 m/s 649 mmHg 73%
    07:00 +18°C° 0,1 mm 0 m/s 650 mmHg 74%
    08:00 +20°C° 0,3 mm 1 m/s 650 mmHg 74%
    09:00 +21°C° 0,3 mm 1 m/s 650 mmHg 74%
    10:00 +22°C° 0,3 mm 1 m/s 650 mmHg 74%
    11:00 +21°C° 0,5 mm 2 m/s 650 mmHg 73%
    12:00 +23°C° 0,5 mm 2 m/s 649 mmHg 73%
    13:00 +23°C° 0,5 mm 2 m/s 649 mmHg 72%
    14:00 +23°C° 0,5 mm 2 m/s 649 mmHg 72%
    15:00 +23°C° 0,5 mm 2 m/s 648 mmHg 72%
    16:00 +23°C° 0,5 mm 1 m/s 648 mmHg 72%
    17:00 +22°C° 0,2 mm 1 m/s 648 mmHg 77%
    18:00 +21°C° 0,2 mm 1 m/s 648 mmHg 82%
    19:00 +19°C° 0,2 mm 1 m/s 648 mmHg 87%
    20:00 +19°C° 0,3 mm 1 m/s 648 mmHg 87%
    21:00 +19°C° 0,3 mm 1 m/s 649 mmHg 87%
    22:00 +19°C° 0,3 mm 1 m/s 649 mmHg 86%
    23:00 +19°C° 0,1 mm 1 m/s 649 mmHg 86%
    Voir plus